Regional Weather Roundup
Issued by NWS

Home | Current Version | Previous Version | Graphics & Text | Print | Product List | Glossary On
Versions: 1 2 3 4 5 6 7 8 9 10 11 12 13 14 15 16 17 18 19 20 21 22 23 24 25 26 27 28 29 30 31 32 33 34 35 36 37 38 39 40 41 42 43 44 45 46 47 48 49 50
000
ASUS43 KTOP 261808
RWRKS

WEATHER ROUNDUP FOR KANSAS
NATIONAL WEATHER SERVICE GOODLAND KS
1200 PM CST SUN FEB 26 2017

NOTE:  "FAIR" INDICATES FEW OR NO CLOUDS BELOW 12,000 FEET WITH NO
SIGNIFICANT WEATHER AND/OR OBSTRUCTIONS TO VISIBILITY.

KSZ001>006-013>018-027>032-041>047-261900-
NORTHWEST KANSAS

CITY           SKY/WX    TMP DP  RH WIND       PRES   REMARKS
GOODLAND       SUNNY     39   7  26 SE5       29.90S
6HR MIN TEMP:  10; 6HR MAX TEMP:  39;

HAYS           SUNNY     45  14  28 NE15      29.96F
HILL CITY      SUNNY     45   8  22 NW8       29.95F
6HR MIN TEMP:  12; 6HR MAX TEMP:  45;

RUSSELL        SUNNY     47  16  29 NE9       29.95F
6HR MIN TEMP:  22; 6HR MAX TEMP:  47;

$$

KSZ061>065-074>080-084>089-261900-
SOUTHWEST KANSAS

CITY           SKY/WX    TMP DP  RH WIND       PRES   REMARKS
DODGE CITY     SUNNY     47  15  27 NE16G24   29.92F
6HR MIN TEMP:  18; 6HR MAX TEMP:  47;

ELKHART          N/A     43  11  27 NE9         N/A
GARDEN CITY    SUNNY     45  11  25 E17       29.91F
6HR MIN TEMP:  13; 6HR MAX TEMP:  45;

GREAT BEND     SUNNY     47  19  33 NE15G28   29.95
LIBERAL        SUNNY     46  19  34 N13       29.92S
PRATT          SUNNY     43  18  36 NE10      29.93F
6HR MIN TEMP:  25; 6HR MAX TEMP:  43;

$$

KSZ066>073-081>083-090>101-261900-
SOUTHEAST KANSAS

CITY           SKY/WX    TMP DP  RH WIND       PRES   REMARKS
CHANUTE        CLOUDY    47  32  56 S13G23    29.99F
6HR MIN TEMP:  36; 6HR MAX TEMP:  47;

COFFEYVILLE    CLOUDY    45  32  60 SE5       30.01S
6HR MIN TEMP:  36; 6HR MAX TEMP:  45; 6HR PCP:  0.01;

HUTCHINSON     SUNNY     47  20  34 VRB3      29.95F
6HR MIN TEMP:  30; 6HR MAX TEMP:  48;

MEDICINE LODGE   N/A     48  21  34 E8        29.92F
NEWTON         SUNNY     45  23  42 VRB3      29.96F
PARSONS        CLOUDY    45  34  65 S7        30.01F
6HR MIN TEMP:  38; 6HR MAX TEMP:  46; 6HR PCP: TRACE;

WICHITA INTL   PTSUNNY   46  25  43 VRB3      29.95F
6HR MIN TEMP:  33; 6HR MAX TEMP:  46;

WICHITA JABRA  PTSUNNY   46  25  43 VRB5      29.95F
6HR MIN TEMP:  33; 6HR MAX TEMP:  46;

WICHITA MCCONL CLOUDY    46  24  41 W6        29.95F
WINFIELD       MOSUNNY   48  25  40 S10       29.96F
6HR MIN TEMP:  34; 6HR MAX TEMP:  49;

$$

KSZ007>012-019>026-033>040-048>060-102>105-261900-
NORTHEAST KANSAS

CITY           SKY/WX    TMP DP  RH WIND       PRES   REMARKS
CONCORDIA      SUNNY     47  21  35 SW7       29.95F
6HR MIN TEMP:  31; 6HR MAX TEMP:  47;

EMPORIA        SUNNY     46  24  42 S10       29.97F
6HR MIN TEMP:  32; 6HR MAX TEMP:  46; 6HR PCP: TRACE;

LAWRENCE       CLOUDY    48  26  42 SE7       30.01F
6HR MIN TEMP:  33; 6HR MAX TEMP:  48; 6HR PCP:  0.01;

MANHATTAN      SUNNY     49  25  39 SW10      29.97F
6HR MIN TEMP:  34; 6HR MAX TEMP:  49; 6HR PCP: TRACE;

MARYSVILLE     SUNNY     50  27  40 SW13      29.95F
OLATHE IND     MOSUNNY   46  28  49 SE10      30.02F
6HR MIN TEMP:  36; 6HR MAX TEMP:  46; 6HR PCP: TRACE;

OLATHE EXE     MOSUNNY   44  28  53 SE10      30.01F
6HR MIN TEMP:  34; 6HR MAX TEMP:  44; 6HR PCP: TRACE;

SALINA         SUNNY     46  25  43 CALM      29.98S
6HR MIN TEMP:  28; 6HR MAX TEMP:  47;

TOPEKA BILLARD CLOUDY    47  25  42 S7        29.99F
6HR MIN TEMP:  34; 6HR MAX TEMP:  47; 6HR PCP: TRACE;

TOPEKA FORBES  CLOUDY    49  23  36 S8        29.99F
6HR MIN TEMP:  35; 6HR MAX TEMP:  50;

$$




USA.gov is the U.S. government's official web portal to all federal, state and local government web resources and services.